This is the latest recevied weather packets stored in our database for station/object HK6REC-23. If no packets are shown the sender has not sent any weather packets the latest 10 day(s).
| Time | Temp. | Humidity | Pressure | Rain* | Wind** | Luminosity | Snow |
|---|---|---|---|---|---|---|---|
| 1777906646 | 18.89° C | 84% | 1015 hPa | 0 mm | - | - | - |
| 1777906045 | 18.89° C | 84% | 1015 hPa | 0 mm | - | - | - |
| 1777905444 | 16.67° C | 95% | 1015 hPa | 0 mm | - | - | - |
| 1777904844 | 18.33° C | 95% | 1015 hPa | 0 mm | - | - | - |
| 1777904243 | 16.67° C | 95% | 1015 hPa | 0 mm | - | - | - |
| 1777903642 | 18.33° C | 95% | 1015 hPa | 0 mm | - | - | - |
| 1777903041 | 17.78° C | 90% | 1015 hPa | 0 mm | - | - | - |
| 1777902440 | 17.78° C | 90% | 1015 hPa | 0 mm | - | - | - |
| 1777901839 | 17.78° C | 91% | 1015 hPa | 0 mm | - | - | - |
| 1777901238 | 13.89° C | 95% | 1016 hPa | 0 mm | - | - | - |
| 1777900637 | 13.89° C | 95% | 1016 hPa | 0 mm | - | - | - |
| 1777900036 | 15° C | 95% | 1015 hPa | 0 mm | - | - | - |
| 1777899435 | 16.67° C | 95% | 1015 hPa | 0 mm | - | - | - |
| 1777898834 | 15° C | 95% | 1015 hPa | 0 mm | - | - | - |
| 1777898233 | 16.67° C | 95% | 1015 hPa | 0 mm | - | - | - |
| 1777897632 | 12.78° C | 95% | 1015 hPa | 0 mm | - | - | - |
| 1777897031 | 12.78° C | 95% | 1015 hPa | 0 mm | - | - | - |
| 1777896430 | 12.78° C | 95% | 1015 hPa | 0 mm | - | - | - |
| 1777895829 | 13.33° C | 95% | 1015 hPa | 0 mm | - | - | - |
| 1777895228 | 15° C | 95% | 1015 hPa | 0 mm | - | - | - |
| 1777894627 | 12.22° C | 91% | 1015 hPa | 0 mm | - | - | - |
| 1777894026 | 13.89° C | 91% | 1015 hPa | 0 mm | - | - | - |
| 1777893425 | 12.22° C | 91% | 1015 hPa | 0 mm | - | - | - |
| 1777892824 | 13.89° C | 91% | 1015 hPa | 0 mm | - | - | - |
| 1777892223 | 11.11° C | 91% | 1015 hPa | 0 mm | - | - | - |
* Rain latest hour (hover to see other rain measurements)
** Current wind speed in m/s (hover to see current wind gust speed)